User: anonymous   Login
Location: Unspecified
(0.0000°N, 0.0000°E)
Time: 06:21:41
(UTC+02:00)
Language:

Cosmos 2251 - Orbit

View from above orbital plane
View from above orbital plane
View from above satellite
View from above satellite

Ground track
Ground track

The orbit data is extracted from the following two-line orbital elements,

1 22675U 93036A   16182.38064604  .00000002  00000-0  10372-4 0  9991
2 22675  74.0390 138.1477 0025392 340.1717  19.8444 14.32476588203656
Epoch (UTC): 30 June 2016 09:08:07
Eccentricity: 0.0025392
inclination: 74.0390°
perigee height: 765 km
apogee height: 801 km
right ascension of ascending node: 138.1477°
argument of perigee: 340.1717°
revolutions per day: 14.32476588
mean anomaly at epoch: 19.8444°
orbit number at epoch: 20365

The dashed part of the orbit path shows where the satellite is in the earth's shadow,  

DLR